Weather in Bet'ki

Russia / Republic of Tatarstan     55°31′03″N   50°10′58″E
temp.,
°C
wind,
m/s
gust,
m/s
humid.,
%
clouds,
%
prec.,
mm/h
press.,
hPa
HPBL,
m
25 february, thu
thu2500:00−27nw239653 0.0 103419
03:00−27wnw129772 0.0 103419
06:00−27ssw2210070 0.0 103219
09:00−24s359584 0.0 1030165
12:00−20sse5791100 0.0 1027299
15:00−17sse61088100 0.0 1024441
18:00−18sse61196100 1.1 1021539
21:00−17sse61095100 1.6 1020551
26 february, fri
fri2600:00−18se51095100 0.2 1018434
03:00−18se51093100 0.3 1018426
06:00−18se5994100 0.1 1017359
09:00−18se5993100 0.2 1017387
12:00−15se6991100 0.1 1016493
15:00−13se61191100 0.1 1014565
18:00−13se71391100 0.1 1010560
21:00−12se91494100 0.6 1006517
27 february, sat
sat2700:00−11se81495100 6.1 1000573
03:00−9se5995100 9.3 998344
06:00−7ese4596100 0.4 996181
09:00−5e3496100 0.9 99696
12:00−2e3398100 0.9 996130
15:00−1e2299100 1.8 997113
18:00−3ene4697100 0.9 997158
21:00−7ne5895100 1.6 999202
28 february, sun
sun2800:00−9nne589498 0.4 1000234
03:00−11nne599392 0.6 1002300
06:00−13nne599292 0.2 1004302
09:00−14nne589289 0.3 1006340
12:00−13n579194 0.1 1009399
15:00−13n589196 0.1 1011425
18:00−16nnw4109397 0.0 1013224
21:00−19n489579 0.0 1016153
1 march, mon
mon100:00−21n47960 0.0 101794
03:00−22n47960 0.0 101994
06:00−23n45950 0.0 102178
09:00−20n35940 0.0 1021171
12:00−17nw34910 0.0 1021236
15:00−15w34940 0.0 1020160
18:00−18wsw44960 0.0 101859
21:00−16sw599628 0.0 1016209